Regional Weather Roundup
Issued by NWS

Home | Current Version | Previous Version | Graphics & Text | Print | Product List | Glossary On
Versions: 1 2 3 4 5 6 7 8 9 10 11 12 13 14 15 16 17 18 19 20 21 22 23 24 25 26 27 28 29 30 31 32 33 34 35 36 37 38 39 40 41 42 43 44 45 46 47 48 49 50
000
ASUS43 KDTX 301810
RWRMI
MICHIGAN HOURLY REGIONAL WEATHER ROUNDUP
NATIONAL WEATHER SERVICE DETROIT/PONTIAC MI
200 PM EDT THU JUL 30 2015

NOTE: "FAIR" INDICATES FEW OR NO CLOUDS BELOW 12,000 FEET WITH NO
SIGNIFICANT WEATHER AND/OR OBSTRUCTION TO VISIBILITY.

MIZ047>049-052>055-059>063-066>070-074>076-081>083-301900-
SOUTHEAST LOWER MICHIGAN

CITY           SKY/WX    TMP DP  RH WIND       PRES   REMARKS
ADRIAN         MOSUNNY   81  58  45 NW13      30.01S
6HR MIN TEMP:  65; 6HR MAX TEMP:  82;

ALMA           SUNNY     82  52  34 W12G22    29.94F
ANN ARBOR      MOSUNNY   83  56  39 NW16      29.98S
BAD AXE        SUNNY     80  57  46 SW18      29.90F
6HR MIN TEMP:  65; 6HR MAX TEMP:  80;

DETROIT CITY   SUNNY     84  53  34 W13G21    29.95S
6HR MIN TEMP:  70; 6HR MAX TEMP:  84;

DETROIT        MOSUNNY   84  56  38 W14       29.97S
6HR MIN TEMP:  70; 6HR MAX TEMP:  85;

FLINT          SUNNY     85  57  38 W14       29.94F
6HR MIN TEMP:  70; 6HR MAX TEMP:  85;

GROSSE ILE     MOSUNNY   84  54  34 W10G18    29.95F
HILLSDALE      MOSUNNY   82  55  38 W14G24    30.03S
HOWELL         SUNNY     84  52  32 NW14      29.97F

CITY           SKY/WX    TMP DP  RH WIND       PRES   REMARKS
JACKSON        MOSUNNY   81  56  42 W13G22    30.00S
6HR MIN TEMP:  66; 6HR MAX TEMP:  81;

LAMBERTVILLE   MOSUNNY   83  56  39 W8G17     30.00S
6HR MIN TEMP:  67; 6HR MAX TEMP:  83;

LANSING        SUNNY     83  54  36 W20G26    29.98S
6HR MIN TEMP:  68; 6HR MAX TEMP:  84;

LAPEER         NOT AVBL
MASON          MOSUNNY   81  56  41 NW14G23   29.98F
MONROE         MOSUNNY   84  59  42 W7G18     29.97F
MT. CLEMENS    MOSUNNY   84  56  37 W17       29.92S
6HR MIN TEMP:  69; 6HR MAX TEMP:  84;

PONTIAC        MOSUNNY   83  56  39 W20       29.95F
6HR MIN TEMP:  68; 6HR MAX TEMP:  83;

PORT HOPE        N/A     81  60  48 VRB7G21   29.86F
6HR MIN TEMP:  68; 6HR MAX TEMP:  81;

PORT HURON     MOSUNNY   81  57  44 W7        29.93S
TRI CITIES     SUNNY     84  55  36 W14       29.92F
6HR MIN TEMP:  68; 6HR MAX TEMP:  84;

YPSILANTI      MOSUNNY   87  57  35 W21       29.97F
6HR MIN TEMP:  71; 6HR MAX TEMP:  88;

$$
MIZ043>046-050>051-056>058-064>065-071>073-077>080-301900-
SOUTHWEST LOWER MICHIGAN

CITY           SKY/WX    TMP DP  RH WIND       PRES   REMARKS
BATTLE CREEK   SUNNY     84  55  36 NW18G30   30.02S
6HR MIN TEMP:  69; 6HR MAX TEMP:  84;

BENTON HARBOR  SUNNY     80  62  54 W15       30.05S
6HR MIN TEMP:  72; 6HR MAX TEMP:  80;

BIG RAPIDS     SUNNY     81  42  25 W17G28    29.95S
6HR MIN TEMP:  68; 6HR MAX TEMP:  82;

COLDWATER      SUNNY     82  52  36 W9G18     30.02S
6HR MIN TEMP:  64; 6HR MAX TEMP:  82;

HOLLAND        SUNNY     80  61  52 W14G20    30.03S
6HR MIN TEMP:  72; 6HR MAX TEMP:  80;

GRAND RAPIDS   MOSUNNY   83  54  36 W17       29.99F
6HR MIN TEMP:  69; 6HR MAX TEMP:  84;

KALAMAZOO      SUNNY     83  55  38 NW17G26   30.02F
6HR MIN TEMP:  69; 6HR MAX TEMP:  85;

MARSHALL       SUNNY     83  53  35 NW13G22   30.00S
MUSKEGON       MOSUNNY   80  45  28 W13G22    30.00S
6HR MIN TEMP:  72; 6HR MAX TEMP:  81;

$$
MIZ016>042-301900-
NORTHERN LOWER MICHIGAN

CITY           SKY/WX    TMP DP  RH WIND       PRES   REMARKS
ALPENA         SUNNY     83  52  34 NW20G26   29.83R
6HR MIN TEMP:  70; 6HR MAX TEMP:  85;

BEAVER ISLAND  SUNNY     77  59  54 W14G21    29.86S
6HR MIN TEMP:  69; 6HR MAX TEMP:  77;

BELLAIRE       SUNNY     79  53  40 W13G23    29.89S
6HR MIN TEMP:  72; 6HR MAX TEMP:  79;

CADILLAC       SUNNY     83  51  32 W21G26    29.93F
CHARLEVOIX     SUNNY     78  58  50 W20G26    29.90F
FRANKFORT      CLEAR     77  63  62 SW8       29.93S
GAYLORD        MOSUNNY   78  53  41 W15G29    29.89S
6HR MIN TEMP:  69; 6HR MAX TEMP:  78;

GRAYLING       SUNNY     82  51  34 W18G26    29.89F
6HR MIN TEMP:  66; 6HR MAX TEMP:  83;

HARBOR SPRINGS SUNNY     74  63  66 W10G22    29.87S
HOUGHTON LAKE  MOSUNNY   81  51  35 W20G26    29.91S
6HR MIN TEMP:  68; 6HR MAX TEMP:  82;

MANISTEE       SUNNY     79  57  47 SW17      29.95S
OSCODA         PTSUNNY   87  49  27 W17G28    29.83F
PELLSTON       CLOUDY    77  55  46 W18G28    29.86R
6HR MIN TEMP:  71; 6HR MAX TEMP:  80;

TRAVERSE CITY  MOSUNNY   84  52  33 W18G32    29.89S
6HR MIN TEMP:  72; 6HR MAX TEMP:  85;

$$
MIZ007>008-015-301900-
EASTERN UPPER MICHIGAN

CITY           SKY/WX    TMP DP  RH WIND       PRES   REMARKS
KINROSS        CLOUDY    72  54  53 NW18G25   29.83S
6HR MIN TEMP:  66; 6HR MAX TEMP:  73;

MACKINAC ISLAN PTSUNNY   74  53  47 W13G22    29.84S
$$
MIZ004>006-011>014-085-301900-
CENTRAL UPPER MICHIGAN

CITY           SKY/WX    TMP DP  RH WIND       PRES   REMARKS
MANISTIQUE     MOSUNNY   81  55  41 NW16      29.84S
ESCANABA       PTSUNNY   82  52  34 NW22G32   29.83F
6HR MIN TEMP:  66; 6HR MAX TEMP:  82;

MENOMINEE      SUNNY     82  54  36 NW10G18   29.89F
6HR MIN TEMP:  64; 6HR MAX TEMP:  82;

SAWYER-GWINN   MOSUNNY   75  50  41 NW21G26   29.90R
$$
MIZ001>003-009>011-084-301900-
WESTERN UPPER MICHIGAN

CITY           SKY/WX    TMP DP  RH WIND       PRES   REMARKS
IRON MOUNTAIN  MOSUNNY   83  50  31 NW13G29   29.90
6HR MIN TEMP:  66; 6HR MAX TEMP:  83;

HOUGHTON       SUNNY     73  53  49 W21G30    29.89R
6HR MIN TEMP:  65; 6HR MAX TEMP:  73;

COPPER HARBOR    N/A     72  52  49 N20G29    29.84R
6HR MIN TEMP:  62; 6HR MAX TEMP:  72;

IRONWOOD       SUNNY     75  55  50 W14       29.92F
6HR MIN TEMP:  64; 6HR MAX TEMP:  75;

$$

ABBREVIATIONS USED IN REMARKS
   TC - TEMPERATURE IN CELSIUS
  WCI - WIND CHILL INDEX
   HX - HEAT INDEX
  VSB - VISIBILITY



USA.gov is the U.S. government's official web portal to all federal, state and local government web resources and services.